Torna al catalogo

TELSTAR 2

A-41

AttivoComunicazioniHEO
NORAD 573·PAYLOAD·🇺🇸 United States

Lanciato May 7, 1963 da Cape Canaveral Space Force Station

Loading…

Prossimi Passaggi (prossime 24 ore)

TLE

AggiornatoSource: Space-Track

Epoca: Sep 14, 2026, 09:47 UTC

1 00573U 63013A   26257.40792529  .00000006  00000-0  19113-3 0  9992
2 00573  42.7627 250.4244 4014225 259.5189 311.5757  6.39279932591850

Traccia TELSTAR 2 in tempo reale con AllMySat

Download on the App Store